<?xml version="1.0" encoding="UTF-8" standalone="no" ?>
<gpx xmlns="http://www.topografix.com/GPX/1/1" xmlns:xsi="http://www.w3.org/2001/XMLSchema-instance" xsi:schemaLocation="http://www.topografix.com/GPX/1/1 http://www.topografix.com/GPX/1/1/gpx.xsd" version="1.1" creator="VisuGPX - https://www.visugpx.com">
  <metadata>
    <name>LaMontagne_BourgCoteauxRocheBalue_5-10km</name>
    <desc><![CDATA[gnerando idor:7892356_7892816-7892347_7893056]]></desc>
  </metadata>
  <trk>
    <name><![CDATA[LaMontagne_Bourg_8km-7893056]]></name>
    <extensions>
      <line xmlns="http://www.topografix.com/GPX/gpx_style/0/2">
        <color>0000FF</color>
        <width>4</width>
      </line>
    </extensions>
    <trkseg>
      <trkpt lat="47.1836" lon="-1.67629">
        <ele>31</ele>
        <time>2023-11-04T12:25:38Z</time>
      </trkpt>
      <trkpt lat="47.18375" lon="-1.67612">
        <ele>31</ele>
        <time>2023-11-04T12:26:03Z</time>
      </trkpt>
      <trkpt lat="47.18379" lon="-1.67633">
        <ele>31</ele>
        <time>2023-11-04T12:26:23Z</time>
      </trkpt>
      <trkpt lat="47.18399" lon="-1.6769">
        <ele>31</ele>
        <time>2023-11-04T12:27:21Z</time>
      </trkpt>
      <trkpt lat="47.18413" lon="-1.67733">
        <ele>31</ele>
        <time>2023-11-04T12:28:04Z</time>
      </trkpt>
      <trkpt lat="47.18414" lon="-1.6776">
        <ele>31</ele>
        <time>2023-11-04T12:28:29Z</time>
      </trkpt>
      <trkpt lat="47.18421" lon="-1.67788">
        <ele>31</ele>
        <time>2023-11-04T12:28:56Z</time>
      </trkpt>
      <trkpt lat="47.18432" lon="-1.6781">
        <ele>32</ele>
        <time>2023-11-04T12:29:21Z</time>
      </trkpt>
      <trkpt lat="47.18462" lon="-1.67797">
        <ele>32</ele>
        <time>2023-11-04T12:30:03Z</time>
      </trkpt>
      <trkpt lat="47.18235" lon="-1.67883">
        <ele>33</ele>
        <time>2023-11-04T12:35:15Z</time>
      </trkpt>
      <trkpt lat="47.17945" lon="-1.67924">
        <ele>34</ele>
        <time>2023-11-04T12:41:44Z</time>
      </trkpt>
      <trkpt lat="47.17788" lon="-1.68087">
        <ele>35</ele>
        <time>2023-11-04T12:46:01Z</time>
      </trkpt>
      <trkpt lat="47.17723" lon="-1.68343">
        <ele>34</ele>
        <time>2023-11-04T12:50:08Z</time>
      </trkpt>
      <trkpt lat="47.17699" lon="-1.68617">
        <ele>31</ele>
        <time>2023-11-04T12:54:19Z</time>
      </trkpt>
      <trkpt lat="47.17825" lon="-1.68887">
        <ele>29</ele>
        <time>2023-11-04T12:59:16Z</time>
      </trkpt>
      <trkpt lat="47.17898" lon="-1.68977">
        <ele>27</ele>
        <time>2023-11-04T13:01:23Z</time>
      </trkpt>
      <trkpt lat="47.18026" lon="-1.69042">
        <ele>27</ele>
        <time>2023-11-04T13:04:24Z</time>
      </trkpt>
      <trkpt lat="47.18055" lon="-1.69235">
        <ele>30</ele>
        <time>2023-11-04T13:07:23Z</time>
      </trkpt>
      <trkpt lat="47.18213" lon="-1.69248">
        <ele>31</ele>
        <time>2023-11-04T13:10:54Z</time>
      </trkpt>
      <trkpt lat="47.18391" lon="-1.69286">
        <ele>30</ele>
        <time>2023-11-04T13:14:54Z</time>
      </trkpt>
      <trkpt lat="47.18391" lon="-1.69119">
        <ele>29</ele>
        <time>2023-11-04T13:17:26Z</time>
      </trkpt>
      <trkpt lat="47.18433" lon="-1.69084">
        <ele>28</ele>
        <time>2023-11-04T13:18:30Z</time>
      </trkpt>
      <trkpt lat="47.18461" lon="-1.69057">
        <ele>27</ele>
        <time>2023-11-04T13:19:15Z</time>
      </trkpt>
      <trkpt lat="47.18478" lon="-1.6903">
        <ele>27</ele>
        <time>2023-11-04T13:19:48Z</time>
      </trkpt>
      <trkpt lat="47.18466" lon="-1.68957">
        <ele>27</ele>
        <time>2023-11-04T13:20:56Z</time>
      </trkpt>
      <trkpt lat="47.18366" lon="-1.68957">
        <ele>26</ele>
        <time>2023-11-04T13:23:10Z</time>
      </trkpt>
      <trkpt lat="47.18345" lon="-1.68796">
        <ele>23</ele>
        <time>2023-11-04T13:25:39Z</time>
      </trkpt>
      <trkpt lat="47.18351" lon="-1.68772">
        <ele>23</ele>
        <time>2023-11-04T13:26:02Z</time>
      </trkpt>
      <trkpt lat="47.18398" lon="-1.68723">
        <ele>24</ele>
        <time>2023-11-04T13:27:19Z</time>
      </trkpt>
      <trkpt lat="47.18401" lon="-1.68701">
        <ele>24</ele>
        <time>2023-11-04T13:27:39Z</time>
      </trkpt>
      <trkpt lat="47.18369" lon="-1.68654">
        <ele>25</ele>
        <time>2023-11-04T13:28:39Z</time>
      </trkpt>
      <trkpt lat="47.18348" lon="-1.68557">
        <ele>27</ele>
        <time>2023-11-04T13:30:12Z</time>
      </trkpt>
      <trkpt lat="47.18416" lon="-1.68496">
        <ele>29</ele>
        <time>2023-11-04T13:31:58Z</time>
      </trkpt>
      <trkpt lat="47.18416" lon="-1.68562">
        <ele>28</ele>
        <time>2023-11-04T13:32:58Z</time>
      </trkpt>
      <trkpt lat="47.18452" lon="-1.68661">
        <ele>24</ele>
        <time>2023-11-04T13:34:40Z</time>
      </trkpt>
      <trkpt lat="47.1845" lon="-1.68657">
        <ele>24</ele>
        <time>2023-11-04T13:34:44Z</time>
      </trkpt>
      <trkpt lat="47.18451" lon="-1.68662">
        <ele>24</ele>
        <time>2023-11-04T13:34:49Z</time>
      </trkpt>
      <trkpt lat="47.18463" lon="-1.68689">
        <ele>24</ele>
        <time>2023-11-04T13:35:18Z</time>
      </trkpt>
      <trkpt lat="47.18481" lon="-1.68736">
        <ele>23</ele>
        <time>2023-11-04T13:36:07Z</time>
      </trkpt>
      <trkpt lat="47.18488" lon="-1.68773">
        <ele>23</ele>
        <time>2023-11-04T13:36:42Z</time>
      </trkpt>
      <trkpt lat="47.18503" lon="-1.68803">
        <ele>23</ele>
        <time>2023-11-04T13:37:16Z</time>
      </trkpt>
      <trkpt lat="47.18528" lon="-1.68803">
        <ele>22</ele>
        <time>2023-11-04T13:37:49Z</time>
      </trkpt>
      <trkpt lat="47.18569" lon="-1.68798">
        <ele>22</ele>
        <time>2023-11-04T13:38:44Z</time>
      </trkpt>
      <trkpt lat="47.18613" lon="-1.68794">
        <ele>22</ele>
        <time>2023-11-04T13:39:43Z</time>
      </trkpt>
      <trkpt lat="47.18649" lon="-1.68783">
        <ele>21</ele>
        <time>2023-11-04T13:40:32Z</time>
      </trkpt>
      <trkpt lat="47.18681" lon="-1.68775">
        <ele>21</ele>
        <time>2023-11-04T13:41:15Z</time>
      </trkpt>
      <trkpt lat="47.18703" lon="-1.68771">
        <ele>21</ele>
        <time>2023-11-04T13:41:45Z</time>
      </trkpt>
      <trkpt lat="47.18715" lon="-1.68806">
        <ele>20</ele>
        <time>2023-11-04T13:42:20Z</time>
      </trkpt>
      <trkpt lat="47.18725" lon="-1.68851">
        <ele>19</ele>
        <time>2023-11-04T13:43:03Z</time>
      </trkpt>
      <trkpt lat="47.18783" lon="-1.68959">
        <ele>18</ele>
        <time>2023-11-04T13:45:08Z</time>
      </trkpt>
      <trkpt lat="47.18795" lon="-1.69">
        <ele>18</ele>
        <time>2023-11-04T13:45:49Z</time>
      </trkpt>
      <trkpt lat="47.18802" lon="-1.69041">
        <ele>18</ele>
        <time>2023-11-04T13:46:27Z</time>
      </trkpt>
      <trkpt lat="47.18847" lon="-1.69032">
        <ele>19</ele>
        <time>2023-11-04T13:47:27Z</time>
      </trkpt>
      <trkpt lat="47.18885" lon="-1.69032">
        <ele>21</ele>
        <time>2023-11-04T13:48:18Z</time>
      </trkpt>
      <trkpt lat="47.18919" lon="-1.69084">
        <ele>23</ele>
        <time>2023-11-04T13:49:24Z</time>
      </trkpt>
      <trkpt lat="47.18939" lon="-1.69118">
        <ele>24</ele>
        <time>2023-11-04T13:50:04Z</time>
      </trkpt>
      <trkpt lat="47.18971" lon="-1.69189">
        <ele>26</ele>
        <time>2023-11-04T13:51:22Z</time>
      </trkpt>
      <trkpt lat="47.18979" lon="-1.69217">
        <ele>26</ele>
        <time>2023-11-04T13:51:49Z</time>
      </trkpt>
      <trkpt lat="47.18956" lon="-1.6924">
        <ele>24</ele>
        <time>2023-11-04T13:52:26Z</time>
      </trkpt>
      <trkpt lat="47.18946" lon="-1.69257">
        <ele>23</ele>
        <time>2023-11-04T13:52:47Z</time>
      </trkpt>
      <trkpt lat="47.18876" lon="-1.69287">
        <ele>21</ele>
        <time>2023-11-04T13:54:24Z</time>
      </trkpt>
      <trkpt lat="47.18868" lon="-1.69353">
        <ele>22</ele>
        <time>2023-11-04T13:55:25Z</time>
      </trkpt>
      <trkpt lat="47.18833" lon="-1.69421">
        <ele>23</ele>
        <time>2023-11-04T13:56:42Z</time>
      </trkpt>
      <trkpt lat="47.18865" lon="-1.69495">
        <ele>24</ele>
        <time>2023-11-04T13:58:02Z</time>
      </trkpt>
      <trkpt lat="47.18988" lon="-1.69553">
        <ele>25</ele>
        <time>2023-11-04T14:00:54Z</time>
      </trkpt>
      <trkpt lat="47.19046" lon="-1.69587">
        <ele>21</ele>
        <time>2023-11-04T14:02:17Z</time>
      </trkpt>
      <trkpt lat="47.19069" lon="-1.6956">
        <ele>19</ele>
        <time>2023-11-04T14:02:57Z</time>
      </trkpt>
      <trkpt lat="47.19089" lon="-1.69523">
        <ele>17</ele>
        <time>2023-11-04T14:03:40Z</time>
      </trkpt>
      <trkpt lat="47.19069" lon="-1.69409">
        <ele>22</ele>
        <time>2023-11-04T14:05:26Z</time>
      </trkpt>
      <trkpt lat="47.1906" lon="-1.69216">
        <ele>28</ele>
        <time>2023-11-04T14:08:22Z</time>
      </trkpt>
      <trkpt lat="47.19008" lon="-1.69071">
        <ele>29</ele>
        <time>2023-11-04T14:10:50Z</time>
      </trkpt>
      <trkpt lat="47.19075" lon="-1.69051">
        <ele>31</ele>
        <time>2023-11-04T14:12:22Z</time>
      </trkpt>
      <trkpt lat="47.19135" lon="-1.69183">
        <ele>30</ele>
        <time>2023-11-04T14:14:46Z</time>
      </trkpt>
      <trkpt lat="47.19167" lon="-1.69157">
        <ele>31</ele>
        <time>2023-11-04T14:15:34Z</time>
      </trkpt>
      <trkpt lat="47.19224" lon="-1.69126">
        <ele>31</ele>
        <time>2023-11-04T14:16:56Z</time>
      </trkpt>
      <trkpt lat="47.19261" lon="-1.69083">
        <ele>30</ele>
        <time>2023-11-04T14:17:58Z</time>
      </trkpt>
      <trkpt lat="47.19288" lon="-1.69064">
        <ele>29</ele>
        <time>2023-11-04T14:18:38Z</time>
      </trkpt>
      <trkpt lat="47.19306" lon="-1.69042">
        <ele>29</ele>
        <time>2023-11-04T14:19:10Z</time>
      </trkpt>
      <trkpt lat="47.19336" lon="-1.69021">
        <ele>27</ele>
        <time>2023-11-04T14:19:54Z</time>
      </trkpt>
      <trkpt lat="47.19322" lon="-1.69001">
        <ele>29</ele>
        <time>2023-11-04T14:20:20Z</time>
      </trkpt>
      <trkpt lat="47.19275" lon="-1.68904">
        <ele>30</ele>
        <time>2023-11-04T14:22:08Z</time>
      </trkpt>
      <trkpt lat="47.19237" lon="-1.6883">
        <ele>31</ele>
        <time>2023-11-04T14:23:32Z</time>
      </trkpt>
      <trkpt lat="47.19237" lon="-1.68796">
        <ele>30</ele>
        <time>2023-11-04T14:24:03Z</time>
      </trkpt>
      <trkpt lat="47.19227" lon="-1.68739">
        <ele>29</ele>
        <time>2023-11-04T14:24:56Z</time>
      </trkpt>
      <trkpt lat="47.19209" lon="-1.68719">
        <ele>30</ele>
        <time>2023-11-04T14:25:26Z</time>
      </trkpt>
      <trkpt lat="47.19175" lon="-1.68683">
        <ele>34</ele>
        <time>2023-11-04T14:26:22Z</time>
      </trkpt>
      <trkpt lat="47.19167" lon="-1.68655">
        <ele>35</ele>
        <time>2023-11-04T14:26:50Z</time>
      </trkpt>
      <trkpt lat="47.1917" lon="-1.68645">
        <ele>35</ele>
        <time>2023-11-04T14:27:00Z</time>
      </trkpt>
      <trkpt lat="47.19157" lon="-1.68594">
        <ele>35</ele>
        <time>2023-11-04T14:27:49Z</time>
      </trkpt>
      <trkpt lat="47.19142" lon="-1.68548">
        <ele>35</ele>
        <time>2023-11-04T14:28:35Z</time>
      </trkpt>
      <trkpt lat="47.1913" lon="-1.68507">
        <ele>34</ele>
        <time>2023-11-04T14:29:16Z</time>
      </trkpt>
      <trkpt lat="47.19114" lon="-1.68465">
        <ele>35</ele>
        <time>2023-11-04T14:30:00Z</time>
      </trkpt>
      <trkpt lat="47.19108" lon="-1.68451">
        <ele>35</ele>
        <time>2023-11-04T14:30:15Z</time>
      </trkpt>
      <trkpt lat="47.19096" lon="-1.68417">
        <ele>35</ele>
        <time>2023-11-04T14:30:49Z</time>
      </trkpt>
      <trkpt lat="47.19097" lon="-1.6838">
        <ele>35</ele>
        <time>2023-11-04T14:31:23Z</time>
      </trkpt>
      <trkpt lat="47.19086" lon="-1.68375">
        <ele>36</ele>
        <time>2023-11-04T14:31:38Z</time>
      </trkpt>
      <trkpt lat="47.19059" lon="-1.6839">
        <ele>37</ele>
        <time>2023-11-04T14:32:17Z</time>
      </trkpt>
      <trkpt lat="47.19035" lon="-1.68396">
        <ele>38</ele>
        <time>2023-11-04T14:32:49Z</time>
      </trkpt>
      <trkpt lat="47.1903" lon="-1.68368">
        <ele>38</ele>
        <time>2023-11-04T14:33:16Z</time>
      </trkpt>
      <trkpt lat="47.19027" lon="-1.68331">
        <ele>38</ele>
        <time>2023-11-04T14:33:49Z</time>
      </trkpt>
      <trkpt lat="47.19029" lon="-1.68303">
        <ele>38</ele>
        <time>2023-11-04T14:34:15Z</time>
      </trkpt>
      <trkpt lat="47.1904" lon="-1.68291">
        <ele>37</ele>
        <time>2023-11-04T14:34:33Z</time>
      </trkpt>
      <trkpt lat="47.19058" lon="-1.68278">
        <ele>36</ele>
        <time>2023-11-04T14:35:00Z</time>
      </trkpt>
      <trkpt lat="47.19087" lon="-1.68259">
        <ele>34</ele>
        <time>2023-11-04T14:35:42Z</time>
      </trkpt>
      <trkpt lat="47.19092" lon="-1.68277">
        <ele>34</ele>
        <time>2023-11-04T14:36:00Z</time>
      </trkpt>
      <trkpt lat="47.19104" lon="-1.68269">
        <ele>32</ele>
        <time>2023-11-04T14:36:17Z</time>
      </trkpt>
      <trkpt lat="47.19122" lon="-1.68256">
        <ele>28</ele>
        <time>2023-11-04T14:36:44Z</time>
      </trkpt>
      <trkpt lat="47.19116" lon="-1.68231">
        <ele>28</ele>
        <time>2023-11-04T14:37:08Z</time>
      </trkpt>
      <trkpt lat="47.19119" lon="-1.68184">
        <ele>26</ele>
        <time>2023-11-04T14:37:51Z</time>
      </trkpt>
      <trkpt lat="47.19115" lon="-1.6815">
        <ele>25</ele>
        <time>2023-11-04T14:38:22Z</time>
      </trkpt>
      <trkpt lat="47.19102" lon="-1.68101">
        <ele>25</ele>
        <time>2023-11-04T14:39:10Z</time>
      </trkpt>
      <trkpt lat="47.19087" lon="-1.68061">
        <ele>25</ele>
        <time>2023-11-04T14:39:51Z</time>
      </trkpt>
      <trkpt lat="47.19074" lon="-1.68039">
        <ele>24</ele>
        <time>2023-11-04T14:40:18Z</time>
      </trkpt>
      <trkpt lat="47.19042" lon="-1.68029">
        <ele>27</ele>
        <time>2023-11-04T14:41:02Z</time>
      </trkpt>
      <trkpt lat="47.19015" lon="-1.68023">
        <ele>30</ele>
        <time>2023-11-04T14:41:38Z</time>
      </trkpt>
      <trkpt lat="47.18997" lon="-1.68031">
        <ele>33</ele>
        <time>2023-11-04T14:42:03Z</time>
      </trkpt>
      <trkpt lat="47.18987" lon="-1.68009">
        <ele>32</ele>
        <time>2023-11-04T14:42:27Z</time>
      </trkpt>
      <trkpt lat="47.18983" lon="-1.6799">
        <ele>31</ele>
        <time>2023-11-04T14:42:45Z</time>
      </trkpt>
      <trkpt lat="47.18973" lon="-1.67972">
        <ele>30</ele>
        <time>2023-11-04T14:43:06Z</time>
      </trkpt>
      <trkpt lat="47.18983" lon="-1.6796">
        <ele>29</ele>
        <time>2023-11-04T14:43:23Z</time>
      </trkpt>
      <trkpt lat="47.18985" lon="-1.67941">
        <ele>27</ele>
        <time>2023-11-04T14:43:41Z</time>
      </trkpt>
      <trkpt lat="47.18975" lon="-1.67908">
        <ele>26</ele>
        <time>2023-11-04T14:44:14Z</time>
      </trkpt>
      <trkpt lat="47.18955" lon="-1.67883">
        <ele>26</ele>
        <time>2023-11-04T14:44:49Z</time>
      </trkpt>
      <trkpt lat="47.18938" lon="-1.67875">
        <ele>28</ele>
        <time>2023-11-04T14:45:12Z</time>
      </trkpt>
      <trkpt lat="47.18918" lon="-1.67891">
        <ele>32</ele>
        <time>2023-11-04T14:45:43Z</time>
      </trkpt>
      <trkpt lat="47.18918" lon="-1.67862">
        <ele>30</ele>
        <time>2023-11-04T14:46:09Z</time>
      </trkpt>
      <trkpt lat="47.18914" lon="-1.67815">
        <ele>30</ele>
        <time>2023-11-04T14:46:52Z</time>
      </trkpt>
      <trkpt lat="47.18906" lon="-1.67774">
        <ele>31</ele>
        <time>2023-11-04T14:47:31Z</time>
      </trkpt>
      <trkpt lat="47.18906" lon="-1.67745">
        <ele>32</ele>
        <time>2023-11-04T14:47:57Z</time>
      </trkpt>
      <trkpt lat="47.18898" lon="-1.67719">
        <ele>32</ele>
        <time>2023-11-04T14:48:23Z</time>
      </trkpt>
      <trkpt lat="47.18886" lon="-1.67701">
        <ele>33</ele>
        <time>2023-11-04T14:48:46Z</time>
      </trkpt>
      <trkpt lat="47.18862" lon="-1.67701">
        <ele>34</ele>
        <time>2023-11-04T14:49:18Z</time>
      </trkpt>
      <trkpt lat="47.1884" lon="-1.67708">
        <ele>36</ele>
        <time>2023-11-04T14:49:48Z</time>
      </trkpt>
      <trkpt lat="47.18815" lon="-1.67718">
        <ele>37</ele>
        <time>2023-11-04T14:50:23Z</time>
      </trkpt>
      <trkpt lat="47.18814" lon="-1.67703">
        <ele>37</ele>
        <time>2023-11-04T14:50:36Z</time>
      </trkpt>
      <trkpt lat="47.18796" lon="-1.67652">
        <ele>37</ele>
        <time>2023-11-04T14:51:28Z</time>
      </trkpt>
      <trkpt lat="47.18772" lon="-1.67626">
        <ele>38</ele>
        <time>2023-11-04T14:52:08Z</time>
      </trkpt>
      <trkpt lat="47.18761" lon="-1.67605">
        <ele>38</ele>
        <time>2023-11-04T14:52:32Z</time>
      </trkpt>
      <trkpt lat="47.1871" lon="-1.67621">
        <ele>38</ele>
        <time>2023-11-04T14:53:42Z</time>
      </trkpt>
      <trkpt lat="47.18687" lon="-1.67614">
        <ele>38</ele>
        <time>2023-11-04T14:54:13Z</time>
      </trkpt>
      <trkpt lat="47.18663" lon="-1.67585">
        <ele>39</ele>
        <time>2023-11-04T14:54:54Z</time>
      </trkpt>
      <trkpt lat="47.18635" lon="-1.67545">
        <ele>39</ele>
        <time>2023-11-04T14:55:47Z</time>
      </trkpt>
      <trkpt lat="47.18622" lon="-1.67514">
        <ele>38</ele>
        <time>2023-11-04T14:56:20Z</time>
      </trkpt>
      <trkpt lat="47.18609" lon="-1.6748">
        <ele>39</ele>
        <time>2023-11-04T14:56:55Z</time>
      </trkpt>
      <trkpt lat="47.18592" lon="-1.6743">
        <ele>40</ele>
        <time>2023-11-04T14:57:46Z</time>
      </trkpt>
      <trkpt lat="47.18576" lon="-1.67388">
        <ele>40</ele>
        <time>2023-11-04T14:58:29Z</time>
      </trkpt>
      <trkpt lat="47.18546" lon="-1.6741">
        <ele>40</ele>
        <time>2023-11-04T14:59:14Z</time>
      </trkpt>
      <trkpt lat="47.18523" lon="-1.67401">
        <ele>39</ele>
        <time>2023-11-04T14:59:46Z</time>
      </trkpt>
      <trkpt lat="47.1851" lon="-1.67429">
        <ele>38</ele>
        <time>2023-11-04T15:00:17Z</time>
      </trkpt>
      <trkpt lat="47.18433" lon="-1.67474">
        <ele>34</ele>
        <time>2023-11-04T15:02:07Z</time>
      </trkpt>
      <trkpt lat="47.18351" lon="-1.67528">
        <ele>31</ele>
        <time>2023-11-04T15:04:07Z</time>
      </trkpt>
    </trkseg>
  </trk>
</gpx>